View from above orbital plane
|
View from above satellite
|
Ground track
|
The orbit data is extracted from the following two-line orbital elements,
1 3093U 68002A 21023.67506968 -.00000039 00000-0 11974-3 0 9994
2 3093 105.7973 178.3585 0318179 63.6092 311.1994 12.83541178484937
Epoch (UTC): | 23 January 2021 16:12:06 |
Eccentricity: | 0.0318179 |
inclination: | 105.7973° |
perigee height: | 1082 km |
apogee height: | 1572 km |
right ascension of ascending node: | 178.3585° |
argument of perigee: | 63.6092° |
revolutions per day: | 12.83541178 |
mean anomaly at epoch: | 311.1994° |
orbit number at epoch: | 48493 |
The dashed part of the orbit path shows where the satellite is in the earth's shadow,
|
|